ROMMA est une association bénévole à but non lucratif. Votre soutien est indispensable : ADHERER à ROMMA ou FAIRE un DON

Chambon - (38, Isère)

Oisans (2460 m)   Longitude: 06° 10' 42" E   Latitude: 45° 01' 32" N Station partenaire n°803
 

Détail journalier du     <<     >>

Température Humidité Vent Dir Rafale Dir. rafale Neige 1 Neige 2
Heure (°C) (%) (km/h) (km/h) (cm) (cm)
01:00 -7.8876N21NNE072
02:00 -7.38917NNE37NNE072
03:00 -7.18921NNE43NE071
04:00 -6.98814NNE41NNE071
05:00 -6.99313NNE33NE071
06:00 -6.08914NE35NE071
07:00 -5.68716NE35NE071
08:00 -4.98421NE48NE071
09:00 -4.28220NE48NE071
10:00 -3.07718NNE48NNE071
11:00 -3.28127NE56NE071
12:00 -3.58427NE47NE070
13:00 -2.88019NE41NE070
14:00 -1.9768N28N070
15:00 -1.6744N14NO2670
16:00 -1.2705N13N069
17:00 -2.8794SSO12SSO2670
18:00 -3.1804NNE12NNE2570
19:00 -2.9794NNE13NNE2670
20:00 -3.2793OSO12OSO070
21:00 -2.4742NE9SE069
22:00 -2.2712SE9SE069
23:00 -2.4762SO12NO069
minuit -2.3754N14N069

Graphique du 19-11-2019

 

Serveur OMMA